Location: *
(48.4333°N, 5.0333°W)
Time: 18:40:56
(UTC+00:00)

LilacSat-2 - Pass Details

Date: 23 October 2021
Orbit: 511 x 532 km, 97.5° (Epoch: 29 November)

Event Time Altitude Azimuth Distance (km) Brightness Sun altitude
Rises 18:38:43 0° 219° (SW) 2,643 ? -14.4°
Reaches altitude 10° 18:42:45 10° 263° (W) 1,757 ? -15.0°
Maximum altitude 18:43:22 10° 272° (W) 1,737 ? -15.2°
Drops below altitude 10° 18:43:59 10° 282° (WNW) 1,757 ? -15.3°
Sets 18:48:02 0° 325° (NW) 2,647 ? -15.9°
